Preview of NWS' New Version of Forecast
This preview is not operational and should not be used for support decisions.

Regional Weather Roundup (RWR)

Issued by National Weather Service (NWS)

                            
000
ASUS46 KSEW 211010
RWRWA 

WASHINGTON REGIONAL WEATHER ROUNDUP
NATIONAL WEATHER SERVICE SEATTLE WA
300 AM PDT SUN JUL 21 2019

NOTE:"FAIR" INDICATES FEW OR NO CLOUDS BELOW 12,000 FEET WITH NO 
SIGNIFICANT WEATHER AND/OR OBSTRUCTIONS TO VISIBILITY.

WAZ507-509-555>559-211100-
SEATTLE, TACOMA, EVERETT, AND VICINITY
  
CITY           SKY/WX    TMP DP  RH WIND       PRES   REMARKS
EVERETT        CLEAR     59  51  75 NE5       29.99F                  
BOEING FIELD   CLEAR     62  50  64 CALM      29.98F                  
RENTON         CLEAR     64  54  69 N8        29.97F VSB 1/2          
SEATAC AIRPORT CLEAR     64  50  60 N10       29.98F                  
JBLM-MCCHORD   CLEAR     53  52  94 CALM      29.97F                  
PUYALLUP       FAIR      54  52  94 CALM      29.98F                  
BREMERTON      CLEAR     59  48  67 NE3       29.98F                  
JBLM-FT LEWIS  NOT AVBL                                               
TACOMA NARROWS CLEAR     60  48  64 N5        29.98S                  
$$
 
WAZ001-503-506-510-514-515-211100-
NORTH INTERIOR
  
CITY           SKY/WX    TMP DP  RH WIND       PRES   REMARKS
BELLINGHAM     CLEAR     57  53  86 CALM      29.98F                  
FRIDAY HARBOR  CLEAR     50  47  89 CALM      30.00S                  
EASTSOUND      CLEAR     55  52  88 CALM      29.98S                  
PORT ANGELES   CLEAR     49  47  93 CALM      30.00F                  
EDIZ HOOK      FAIR      53  49  88 S3        30.00S                  
PORT TOWNSEND  FAIR      48  46  93 CALM      29.99S                  
NAS WHIDBEY    PTCLDY    55  49  80 CALM      30.03R                  
ARLINGTON        N/A     53  50  89 W5        29.99F                  
BURLINGTON     CLEAR     54  52  94 CALM      29.99F                  
$$
 
WAZ020-022-039-040-504-511-512-211100-
SOUTHWEST INTERIOR
  
CITY           SKY/WX    TMP DP  RH WIND       PRES   REMARKS
SHELTON        CLEAR     53  48  83 CALM      29.96S                  
OLYMPIA        CLEAR     52  48  86 CALM      29.98S                  
CHEHALIS       FAIR      54  52  94 CALM      29.98R                  
KELSO          CLEAR     55  52  89 CALM      29.97S                  
VANCOUVER      CLEAR     59  51  75 CALM      29.93S                  
SCAPPOOSE, OR  CLEAR     64  52  64 N6        29.93R                  
PORTLAND, OR   CLEAR     63  53  70 CALM      29.94R                  
$$
 
WAZ021-516-517-211100-
WASHINGTON COAST
  
CITY           SKY/WX    TMP DP  RH WIND       PRES   REMARKS
FORKS          CLEAR     49  48  97 CALM      29.99S                  
HOQUIAM        CLEAR     55  54  96 E6        29.98F                  
ASTORIA, OR    CLEAR     55  52  89 S5        29.97F                  
$$
 
WAZ019-023-024-040-567>569-211100-
CASCADE MOUNTAINS AND COLUMBIA GORGE
  
CITY           SKY/WX    TMP DP  RH WIND       PRES   REMARKS
STAMPEDE PASS  CLEAR     55  35  47 MISG      30.12S                  
TROUTDALE, OR  CLEAR     59  47  64 CALM      29.94R                  
HOOD RIVER, OR SUNNY     54  41  62 S5        29.99S                  
THE DALLES, OR CLEAR     56  37  49 CALM      29.97S                  
$$

WAZ026-027-041>044-520-521-211100-
EAST SLOPES
  
CITY           SKY/WX    TMP DP  RH WIND       PRES   REMARKS
OMAK           CLEAR     58  44  60 N8        30.09F                  
WENATCHEE      CLEAR     62  39  42 MISG      30.06R                  
ELLENSBURG     CLEAR     51  40  65 MISG      30.06S                  
YAKIMA         CLEAR     52  39  61 W8        30.04S                  
SUNNYSIDE ARPT SUNNY     50  47  87 CALM      30.01S                  
YAKIMA TC      FAIR      55  30  38 NE3       30.03R                  
$$

WAZ028-034-035-211100-
COLUMBIA BASIN
  
CITY           SKY/WX    TMP DP  RH WIND       PRES   REMARKS
EPHRATA        CLEAR     63  42  46 N9        30.05S                  
MOSES LAKE     CLEAR     61  41  47 N8        30.04S                  
PASCO          CLEAR     55  46  71 NW3       29.99S                  
RICHLAND ARPT  SUNNY     56  39  54 SW3       30.00                   
HERMISTON, OR  CLEAR     55  40  56 SE7       29.97S                  
$$

WAZ036>038-211100-
NORTHEAST WASHINGTON
  
CITY           SKY/WX    TMP DP  RH WIND       PRES   REMARKS
SPOKANE GEIGER CLEAR     60  42  51 NE9       30.10S                  
SPOKANE FELTS  CLEAR     53  44  71 CALM      30.10F                  
FAIRCHILD AFB  CLEAR     55  41  60 NE6       30.10S                  
COEURDALENE,ID CLEAR     54  44  69 N12       30.12S                  
DEER PARK      CLEAR     55  43  63 NE7       30.12S                  
$$

WAZ029>033-211100-
SOUTHEAST WASHINGTON
  
CITY           SKY/WX    TMP DP  RH WIND       PRES   REMARKS
PULLMAN        CLEAR     46  37  71 CALM      30.08F                  
LEWISTON, ID   CLEAR     58  35  42 SE5       30.03F                  
WALLA WALLA    CLEAR     59  37  44 E5        29.99S                  
PENDLETON, OR  CLEAR     57  37  47 SE12      29.99S                  
$$